Home   Weather   Palermo   Past weeks

Flag for Italy Past Weather in Palermo, Italy — Yesterday and Last 2 Weeks

70 °F

Light rain. Passing clouds.

Feels Like: 70 °F
Forecast: 66 / 72 °F
Wind: 3 mph from Northwest

Location: Palermo / Punta Raisi

Current Time: Oct 21, 2016 at 3:08:46 PM

Latest Report: Oct 21, 2016 at 2:20 PM

Visibility: N/A

Pressure: 29.89 "Hg

Humidity: 78%

Dew Point: 63 °F

Location of PalermoLocation

Past Weather in Palermo — Graph


Palermo Temperature Yesterday

Maximum temperature yesterday: 75 °F (at 1:50 PM)
Minimum temperature yesterday: 63 °F (at 3:50 AM)
Average temperature yesterday: 69 °F

High & Low Weather Summary for the Past Weeks

High95 °F (Oct 14, 4:20 PM)94% (Oct 20, 10:20 PM)30.24 "Hg (Oct 20, 10:20 PM)
Low61 °F (Oct 13, 3:50 AM)15% (Oct 14, 7:50 PM)29.74 "Hg (Oct 14, 4:50 PM)
Average72 °F66%30.02 "Hg
* Reported Oct 6 1:20 PM — Oct 21 1:50 PM, Palermo, Weather by CustomWeather, © 2016

Note: Actual official high and low records may vary slightly from our data, if they occured in-between our weather recording intervals... More about our weather records


Palermo Weather History for the Previous 24 Hours

Scroll right to see more
Time TempWeatherWind HumidityBarometerVisibility
1:50 PM
Fri, Oct 21
70 °FPassing clouds.9 mph78%29.92 "HgN/A
1:20 PM70 °FSunny.7 mph78%29.92 "Hg10 mi
12:50 PM72 °FSunny.8 mph73%29.95 "Hg10 mi
12:20 PM72 °FSunny.12 mph73%29.95 "Hg10 mi
11:50 AM72 °FSunny.13 mph73%29.92 "Hg10 mi
11:20 AM72 °FSunny.12 mph73%29.92 "Hg10 mi
10:50 AM72 °FSunny.10 mph73%29.92 "Hg10 mi
10:20 AM70 °FSunny.13 mph73%29.92 "Hg10 mi
9:50 AM70 °FSunny.13 mph78%29.92 "Hg10 mi
9:20 AM68 °FSunny.13 mph78%29.92 "Hg10 mi
8:50 AM68 °FSunny.13 mph78%29.92 "Hg10 mi
8:20 AM66 °FSunny.12 mph83%29.92 "Hg10 mi
7:50 AM66 °FSunny.8 mph83%29.89 "Hg10 mi
7:20 AM66 °FClear.9 mph83%29.89 "Hg10 mi
6:50 AM66 °FPassing clouds.8 mph83%29.89 "HgN/A
6:20 AM66 °FPassing clouds.9 mph88%29.89 "HgN/A
5:50 AM64 °FPassing clouds.7 mph94%29.89 "HgN/A
5:20 AM63 °FPassing clouds.6 mph94%29.89 "HgN/A
4:50 AM63 °FPassing clouds.3 mph94%29.89 "HgN/A
4:20 AM63 °FClear.6 mph94%29.89 "Hg10 mi
3:50 AM63 °FClear.6 mph94%29.92 "Hg10 mi
3:20 AM63 °FClear.5 mph88%29.92 "Hg10 mi
2:50 AM64 °FPassing clouds.3 mph88%29.92 "HgN/A
2:20 AM64 °FPassing clouds.3 mph88%29.92 "HgN/A
1:50 AM66 °FPassing clouds.6 mph88%29.92 "HgN/A
1:20 AM66 °FPassing clouds.2 mph88%29.92 "HgN/A
12:50 AM68 °FPassing clouds.9 mph83%29.92 "HgN/A
12:20 AM66 °FPassing clouds.10 mph88%29.92 "HgN/A
11:50 PM
Thu, Oct 20
64 °FLight rain. Passing clouds.2 mph88%29.92 "HgN/A
11:20 PM64 °FThunderstorms. Passing clouds.6 mph88%29.92 "Hg2 mi
10:50 PM64 °FThunderstorms. Passing clouds.10 mph94%29.95 "Hg4 mi
10:20 PM64 °FThunderstorms. Passing clouds.7 mph94%29.92 "Hg4 mi
9:50 PM66 °FRain. Passing clouds.10 mph83%29.95 "Hg4 mi
9:20 PM66 °FRain. Passing clouds.6 mph83%29.95 "Hg6 mi
7:50 PM72 °FPassing clouds.1 mph65%29.98 "HgN/A
7:20 PM70 °FPassing clouds.3 mph69%29.95 "HgN/A
6:50 PM72 °FPassing clouds.2 mph61%29.98 "HgN/A
6:20 PM72 °FPartly sunny.7 mph69%29.98 "HgN/A
5:50 PM72 °FPartly sunny.9 mph65%29.98 "HgN/A
5:20 PM72 °FPartly sunny.10 mph65%29.98 "HgN/A
4:50 PM72 °FScattered clouds.12 mph65%29.98 "HgN/A
4:20 PM73 °FPartly sunny.10 mph61%29.98 "HgN/A
3:50 PM73 °FPartly sunny.12 mph57%29.98 "HgN/A
3:20 PM73 °FPartly sunny.9 mph61%29.98 "HgN/A
Weather by CustomWeather, © 2016

See weather overviewHow to use our weather pages